This is the latest recevied weather packets stored in our database for station/object VR2OT-10. If no packets are shown the sender has not sent any weather packets the latest 10 day(s).
| Time | Temp. | Humidity | Pressure | Rain* | Wind** | Luminosity | Snow |
|---|---|---|---|---|---|---|---|
| 1787839834 | 28.33° C | 81% | 1004.5 hPa | - | 1.34 m/s, 180° | - | - |
| 1787838933 | 28.33° C | 79% | 1004.2 hPa | - | 1.79 m/s, 180° | - | - |
| 1787838031 | 28.33° C | 81% | 1004.1 hPa | - | 1.79 m/s, 135° | - | - |
| 1787837133 | 28.33° C | 83% | 1003.8 hPa | - | 1.34 m/s, 180° | - | - |
| 1787836234 | 28.33° C | 82% | 1003.7 hPa | - | 1.34 m/s, 180° | - | - |
| 1787835332 | 28.33° C | 84% | 1003.6 hPa | - | 1.34 m/s, 180° | - | - |
| 1787834434 | 28.33° C | 83% | 1003.5 hPa | - | 0 m/s | - | - |
| 1787833533 | 28.33° C | 83% | 1003.2 hPa | - | 0 m/s | - | - |
| 1787832632 | 28.33° C | 82% | 1003.1 hPa | - | 0 m/s | - | - |
| 1787831733 | 27.78° C | 83% | 1002.8 hPa | - | 0.45 m/s, 180° | - | - |
| 1787830833 | 28.33° C | 83% | 1002.7 hPa | - | 0 m/s | - | - |
| 1787829932 | 27.78° C | 83% | 1002.5 hPa | - | 1.34 m/s, 180° | - | - |
| 1787829034 | 27.78° C | 82% | 1002.3 hPa | - | 0.45 m/s, 180° | - | - |
| 1787828133 | 27.78° C | 81% | 1002.2 hPa | - | 0.89 m/s, 135° | - | - |
| 1787827231 | 27.78° C | 84% | 1002.2 hPa | - | 0.89 m/s, 135° | - | - |
| 1787826333 | 28.33° C | 84% | 1002.2 hPa | - | 1.34 m/s, 135° | - | - |
| 1787825434 | 28.33° C | 84% | 1002.2 hPa | - | 1.34 m/s, 180° | - | - |
| 1787824532 | 28.33° C | 86% | 1001.8 hPa | - | 0 m/s | - | - |
| 1787823634 | 28.89° C | 84% | 1001.7 hPa | - | 0.45 m/s, 180° | - | - |
| 1787822733 | 28.89° C | 84% | 1001.7 hPa | - | 0.45 m/s, 225° | - | - |
| 1787821832 | 28.89° C | 83% | 1001.7 hPa | - | 0.89 m/s, 225° | - | - |
| 1787820933 | 28.89° C | 82% | 1001.7 hPa | - | 1.34 m/s, 225° | - | - |
| 1787820033 | 28.89° C | 82% | 1001.8 hPa | - | 1.34 m/s, 225° | - | - |
| 1787819132 | 28.89° C | 82% | 1002.2 hPa | - | 0.89 m/s, 225° | - | - |
| 1787818234 | 28.33° C | 82% | 1002.2 hPa | - | 0.45 m/s, 225° | - | - |
* Rain since midnight (hover to see other rain measurements)
** Current wind speed in m/s (hover to see current wind gust speed)